1537088401.21,36439,19.38,74560.8,13.55,-12.57,-21.23,0,*47
1537088402.47,36440,19.38,74562.3,13.53,-12.35,-20.99,0,*4B
1537088403.72,36441,19.38,74566.0,13.51,-12.29,-20.83,0,*4E
1537088404.98,36442,19.38,74562.3,13.49,-12.11,-20.53,0,*42
1537088406.19,36443,19.38,74562.5,13.45,-12.25,-20.63,0,*4B
1537088407.45,36444,19.38,74562.3,13.45,-12.53,-20.83,0,*43
1537088408.7,36445,19.38,74560.0,13.43,-11.55,-19.37,0,*44
1537088409.93,36446,19.38,74560.5,13.41,-11.41,-19.31,0,*46
1537088411.15,36447,19.38,74560.5,13.37,-10.63,-18.25,0,*43
1537088412.37,36448,19.38,74560.3,13.41,-9.93,-17.17,0,*74
1537088413.62,36449,19.38,74562.3,13.37,-9.83,-17.07,0,*74
1537088414.84,36450,19.38,74562.8,13.41,-9.49,-16.45,0,*7C
1537088416.06,36451,19.38,74560.3,13.41,-8.59,-15.35,0,*79
1537088417.28,36452,19.38,74560.3,13.45,-6.39,-12.75,0,*75
1537088418.47,36453,19.38,74560.0,13.49,-4.99,-11.15,0,*75
1537088419.72,36454,19.31,74562.3,13.55,-4.89,-11.01,0,*7B
1537088420.94,36455,19.31,74558.3,13.65,-3.39,-9.31,0,*4F
1537088422.14,36456,19.38,74560.8,13.71,-3.95,-9.93,0,*47
1537088423.36,36457,19.38,74562.5,13.75,-4.89,-11.11,0,*7B
1537088424.58,36458,19.38,74562.3,13.79,-4.99,-11.29,0,*72
1537088425.82,36459,19.38,74562.0,13.85,-4.21,-10.31,0,*7B
1537088427.06,36460,19.38,74562.8,13.91,-4.21,-10.23,0,*77
1537088428.26,36461,19.31,74558.3,13.93,-3.91,-9.75,0,*43
1537088429.49,36462,19.38,74560.8,13.97,-3.79,-9.53,0,*46
1537088430.68,36463,19.38,74560.5,14.05,-3.23,-8.75,0,*41
1537088431.88,36464,19.31,74560.5,14.11,-3.19,-8.55,0,*48
1537088433.1,36465,19.38,74562.3,14.15,-3.83,-9.31,0,*4D
1537088434.34,36466,19.38,74566.8,14.19,-4.09,-9.53,0,*43
1537088435.56,36467,19.31,74562.3,14.23,-4.05,-9.53,0,*47
1537088436.78,36468,19.38,74560.0,14.27,-3.55,-9.01,0,*49
1537088438.06,36469,19.38,74562.5,14.33,-3.59,-9.11,0,*40
1537088439.28,36470,19.38,74564.5,14.33,-4.05,-9.67,0,*47
1537088440.47,36471,19.38,74560.5,14.35,-4.33,-9.89,0,*45
1537088441.7,36472,19.38,74560.8,14.35,-3.59,-9.05,0,*49
1537088442.94,36473,19.38,74562.5,14.37,-3.11,-8.51,0,*46
1537088444.18,36474,19.38,74562.0,14.41,-2.87,-8.03,0,*49
1537088445.42,36475,19.31,74562.3,14.43,-2.55,-7.35,0,*4F
1537088446.63,36476,19.38,74560.0,14.45,-2.23,-6.89,0,*4D
1537088447.9,36477,19.38,74560.8,14.49,-1.47,-5.85,0,*4E
1537088449.17,36478,19.31,74560.8,14.55,-1.09,-5.69,0,*44
1537088450.41,36479,19.38,74560.8,14.59,-0.61,-5.19,0,*71
1537088451.65,36480,19.38,74564.8,14.63,-0.19,-4.73,0,*7C
1537088452.87,36481,19.38,74560.8,14.65,-0.41,-5.19,0,*7B
1537088454.14,36482,19.31,74560.8,14.71,-1.13,-5.93,0,*49
1537088455.4,36483,19.38,74560.8,14.75,-1.91,-6.93,0,*45
1537088456.67,36484,19.38,74560.0,14.75,-1.95,-6.93,0,*46
1537088457.91,36485,19.38,74562.8,14.77,-2.07,-7.31,0,*44
1537088459.1,36486,19.38,74564.8,14.77,-1.63,-6.89,0,*44
1537088460.3,36487,19.31,74562.3,14.77,-1.33,-6.77,0,*41
1537088461.49,36488,19.38,74566.0,14.77,-1.51,-7.19,0,*43
1537088462.7,36489,19.38,74562.8,14.77,-0.89,-6.69,0,*70
1537088463.95,36490,19.38,74562.0,14.75,-1.43,-7.23,0,*42
1537088465.14,36491,19.31,74560.0,14.77,-3.15,-8.97,0,*40
1537088466.35,36492,19.38,74562.8,14.77,-3.95,-10.15,0,*78
1537088467.56,36493,19.38,74560.3,14.69,-4.53,-10.93,0,*75
1537088468.75,36494,19.38,74564.0,14.65,-4.61,-11.41,0,*71
1537088470.02,36495,19.38,74564.3,14.63,-4.89,-11.77,0,*75
1537088471.24,36496,19.38,74564.5,14.61,-4.53,-11.55,0,*73
1537088472.45,36497,19.38,74562.8,14.57,-2.91,-10.01,0,*7F
1537088473.67,36498,19.38,74560.3,14.57,-1.99,-8.89,0,*42
1537088474.94,36499,19.38,74564.8,14.55,-1.39,-8.11,0,*4A
1537088476.13,36500,19.31,74562.5,14.57,-0.69,-6.69,0,*7C
1537088477.35,36501,19.38,74564.5,14.59,-0.65,-6.47,0,*73
1537088478.59,36502,19.38,74564.0,14.59,-0.85,-6.35,0,*7B
1537088479.84,36503,19.38,74560.8,14.59,-1.21,-6.97,0,*4D
1537088481.08,36504,19.38,74564.3,14.57,-2.03,-8.11,0,*47
1537088482.3,36505,19.38,74560.8,14.57,-1.51,-7.73,0,*49
1537088483.51,36506,19.38,74562.8,14.57,-1.67,-7.95,0,*47
1537088484.75,36507,19.38,74560.3,14.55,-1.51,-7.65,0,*4E
1537088485.94,36508,19.31,74562.5,14.57,-0.37,-6.51,0,*74
1537088487.2,36509,19.38,74562.3,14.59,0.51,-5.81,0,*58
1537088488.41,36510,19.38,74564.5,14.61,0.75,-5.55,0,*54
1537088489.68,36511,19.38,74564.0,14.63,1.17,-4.89,0,*62
1537088490.95,36512,19.31,74562.3,14.63,0.87,-5.27,0,*5C
1537088492.15,36513,19.31,74560.0,14.65,0.33,-5.97,0,*5F
1537088493.36,36514,19.38,74562.8,14.67,0.37,-6.09,0,*5A
1537088494.6,36515,19.38,74562.3,14.71,-0.45,-7.31,0,*7E
1537088495.78,36516,19.38,74562.3,14.69,0.01,-6.77,0,*6A
1537088496.96,36517,19.31,74560.0,14.69,0.09,-6.85,0,*6E
1537088498.2,36518,19.38,74562.5,14.71,-0.45,-7.27,0,*74
1537088499.4,36519,19.38,74564.0,14.69,0.21,-6.39,0,*5D
1537088500.64,36520,19.38,74562.5,14.71,-0.45,-7.27,0,*7F
1537088501.88,36521,19.38,74562.8,14.71,-0.65,-7.43,0,*7E
1537088503.13,36522,19.38,74560.5,14.69,-0.89,-7.65,0,*72
1537088504.32,36523,19.38,74564.5,14.69,-1.59,-8.45,0,*42
1537088505.54,36524,19.38,74562.8,14.69,-1.51,-7.91,0,*4B
1537088506.8,36525,19.38,74562.3,14.67,-1.05,-7.05,0,*48
1537088508.01,36526,19.38,74562.5,14.65,-1.01,-6.89,0,*48
1537088509.23,36527,19.38,74560.8,14.65,-1.17,-6.93,0,*45
1537088510.48,36528,19.31,74562.0,14.63,-1.79,-7.77,0,*4F
1537088511.69,36529,19.38,74562.5,14.61,-2.39,-8.51,0,*40
1537088512.91,36530,19.38,74560.8,14.57,-3.07,-9.37,0,*40
1537088514.13,36531,19.38,74566.3,14.57,-3.39,-9.61,0,*4F
1537088515.35,36532,19.38,74562.3,14.53,-3.23,-9.37,0,*40
1537088516.54,36533,19.38,74560.8,14.47,-3.15,-9.05,0,*40
1537088517.77,36534,19.31,74562.5,14.45,-3.15,-8.89,0,*40
1537088519.01,36535,19.31,74560.5,14.43,-3.43,-9.49,0,*49
1537088520.26,36536,19.38,74564.3,14.37,-3.39,-9.37,0,*4D
1537088521.53,36537,19.31,74558.0,14.37,-2.75,-8.81,0,*49
1537088522.72,36538,19.38,74562.3,14.35,-2.27,-8.45,0,*4B
1537088523.93,36539,19.38,74560.3,14.35,-1.63,-7.73,0,*43
1537088525.15,36540,19.38,74560.0,14.33,-1.67,-7.87,0,*44
1537088526.35,36541,19.38,74566.3,14.31,-2.23,-8.45,0,*45
1537088527.59,36542,19.31,74556.5,14.31,-1.35,-7.77,0,*4C
1537088528.8,36543,19.38,74564.3,14.25,-1.59,-8.63,0,*48
1537088530.05,36544,19.38,74562.5,14.25,-1.83,-9.19,0,*44
1537088531.32,36545,19.38,74560.0,14.25,-1.13,-8.51,0,*41
1537088532.56,36546,19.38,74562.8,14.23,-1.05,-7.99,0,*48
1537088533.75,36547,19.38,74562.3,14.23,-0.15,-6.51,0,*7C
1537088534.95,36548,19.38,74562.5,14.23,0.43,-5.93,0,*50
1537088536.15,36549,19.31,74560.0,14.23,-0.57,-6.81,0,*79
1537088537.33,36550,19.31,74562.0,14.23,-0.33,-6.13,0,*78
1537088538.57,36551,19.38,74562.0,14.21,-0.33,-5.77,0,*7A
1537088539.81,36552,19.38,74560.3,14.21,-0.23,-5.39,0,*72
1537088541.05,36553,19.31,74560.3,14.21,-0.29,-5.15,0,*77
1537088542.26,36554,19.31,74556.8,14.21,0.43,-4.37,0,*50
1537088543.5,36555,19.31,74562.0,14.21,0.87,-3.95,0,*56
1537088544.72,36556,19.31,74560.8,14.19,0.41,-4.37,0,*5B
1537088545.95,36557,19.38,74560.5,14.19,0.05,-5.11,0,*6F
1537088547.18,36558,19.31,74560.5,14.17,0.25,-4.77,0,*5D
1537088548.43,36559,19.38,74562.8,14.19,-0.85,-5.81,0,*7D
1537088549.62,36560,19.31,74558.5,14.17,-0.73,-5.47,0,*7A
1537088550.85,36561,19.31,74562.3,14.15,0.21,-4.45,0,*50
1537088552.03,36562,19.38,74564.5,14.13,-0.03,-4.49,0,*44
1537088553.23,36563,19.38,74560.5,14.13,-0.29,-4.93,0,*7A
1537088554.44,36564,19.38,74560.5,14.11,-0.33,-4.99,0,*7E
1537088555.65,36565,19.31,74562.0,14.09,-0.45,-5.15,0,*72
1537088556.85,36566,19.31,74560.5,14.05,0.21,-4.49,0,*5A
1537088558.06,36567,19.38,74562.3,14.05,0.41,-4.25,0,*57
1537088559.27,36568,19.31,74560.5,14.05,1.71,-2.87,0,*64
1537088560.49,36569,19.38,74560.5,14.05,1.85,-2.83,0,*6A
1537088561.67,36570,19.31,74560.8,14.09,2.31,-2.23,0,*68
1537088562.91,36571,19.31,74560.0,14.09,1.29,-3.47,0,*60
1537088564.12,36572,19.38,74560.3,14.09,1.17,-3.75,0,*6F
1537088565.33,36573,19.38,74562.0,14.09,0.87,-4.25,0,*54
1537088566.54,36574,19.38,74560.8,14.09,0.91,-4.45,0,*52
1537088567.8,36575,19.38,74560.3,14.03,0.21,-5.23,0,*53
1537088569.05,36576,19.31,74562.5,14.03,0.79,-4.69,0,*52
1537088570.29,36577,19.31,74560.5,14.05,0.83,-4.89,0,*5E
1537088571.54,36578,19.31,74560.0,14.03,0.67,-5.19,0,*55
1537088572.79,36579,19.31,74560.5,14.03,0.83,-4.85,0,*5A
1537088574.04,36580,19.38,74562.8,14.03,0.25,-5.89,0,*5D
1537088575.26,36581,19.38,74562.3,13.99,-0.19,-6.13,0,*7A
1537088576.48,36582,19.38,74562.5,13.99,-0.41,-6.55,0,*76
1537088577.72,36583,19.31,74560.0,13.97,-1.47,-7.99,0,*4F
1537088578.97,36584,19.31,74562.8,13.93,-1.13,-7.73,0,*49
1537088580.24,36585,19.31,74562.5,13.91,-1.09,-7.99,0,*45
1537088581.46,36586,19.31,74562.5,13.89,-0.85,-7.87,0,*75
1537088582.67,36587,19.31,74560.8,13.87,-0.27,-7.15,0,*79
1537088583.91,36588,19.31,74560.8,13.85,-0.49,-7.43,0,*7F
1537088585.15,36589,19.38,74564.0,13.87,-0.85,-8.07,0,*73
1537088586.39,36590,19.31,74560.8,13.81,-0.03,-7.31,0,*49
1537088587.6,36591,19.31,74558.8,13.81,-0.53,-7.87,0,*70
1537088588.84,36592,19.31,74560.3,13.81,-0.29,-7.73,0,*75
1537088590.09,36593,19.31,74560.0,13.81,0.41,-6.93,0,*58
1537088591.31,36594,19.38,74564.0,13.85,0.43,-7.05,0,*57
1537088592.54,36595,19.31,74562.0,13.81,0.09,-7.35,0,*6F
1537088593.79,36596,19.31,74560.0,13.85,-0.37,-8.07,0,*76
1537088595.03,36597,19.38,74560.5,13.81,-1.59,-9.37,0,*48
1537088596.27,36598,19.31,74558.8,13.77,-1.95,-9.71,0,*4C
1537088597.47,36599,19.31,74562.3,13.75,-2.23,-10.09,0,*76
1537088598.73,36600,19.38,74564.0,13.69,-1.71,-9.53,0,*4B
1537088599.94,36601,19.31,74562.3,13.69,-0.53,-8.41,0,*79
1537088601.14,36602,19.31,74560.3,13.67,-0.49,-8.37,0,*7E
1537088602.35,36603,19.31,74560.0,13.65,-0.73,-8.93,0,*7A
1537088603.59,36604,19.31,74560.5,13.65,-0.27,-8.75,0,*74
1537088604.84,36605,19.31,74562.0,13.65,-1.13,-9.97,0,*4E
1537088606.07,36606,19.31,74560.3,13.63,-1.13,-10.09,0,*74
1537088607.29,36607,19.31,74562.5,13.59,-1.63,-10.75,0,*70
1537088608.52,36608,19.31,74560.3,13.57,-1.59,-10.93,0,*70
1537088609.76,36609,19.38,74564.3,13.55,-0.97,-10.53,0,*4C
1537088611.01,36610,19.31,74560.8,13.53,-0.89,-10.67,0,*4A
1537088612.29,36611,19.31,74560.3,13.51,-1.39,-11.55,0,*73
1537088613.53,36612,19.31,74560.0,13.51,-2.15,-12.65,0,*7D
1537088614.77,36613,19.31,74562.5,13.49,-2.55,-13.29,0,*78
1537088615.99,36614,19.31,74560.0,13.45,-3.51,-14.23,0,*7B
1537088617.24,36615,19.38,74564.3,13.43,-2.47,-13.11,0,*7C
1537088618.49,36616,19.31,74560.8,13.37,-2.47,-13.33,0,*7C
1537088619.71,36617,19.38,74564.0,13.37,-1.91,-12.43,0,*73
1537088620.96,36618,19.31,74562.3,13.37,-1.43,-11.77,0,*77
1537088622.18,36619,19.38,74564.5,13.37,-1.79,-11.89,0,*7E
1537088623.4,36620,19.31,74562.5,13.37,-1.43,-11.19,0,*74
1537088624.6,36621,19.31,74560.0,13.37,-1.71,-10.89,0,*7C
1537088625.8,36622,19.31,74560.8,13.37,-2.31,-10.93,0,*73
1537088627.05,36623,19.31,74560.3,13.37,-2.55,-11.07,0,*7C
1537088628.32,36624,19.31,74562.8,13.35,-2.47,-11.29,0,*76
1537088629.57,36625,19.31,74562.0,13.35,-2.31,-11.29,0,*76
1537088630.84,36626,19.31,74562.5,13.35,-2.47,-11.59,0,*73
1537088632.08,36627,19.31,74562.5,13.35,-2.83,-11.85,0,*7B
1537088633.29,36628,19.31,74560.8,13.35,-4.45,-13.47,0,*74
1537088634.52,36629,19.31,74560.8,13.35,-5.11,-13.73,0,*72
1537088635.74,36630,19.31,74560.8,13.33,-5.47,-13.79,0,*75
1537088636.96,36631,19.31,74560.5,13.29,-5.85,-13.43,0,*78
1537088638.18,36632,19.38,74564.5,13.27,-6.43,-13.55,0,*7B
1537088639.43,36633,19.31,74562.0,13.27,-6.81,-13.83,0,*7F
1537088640.65,36634,19.31,74560.8,13.23,-7.11,-14.05,0,*7D
1537088641.91,36635,19.38,74562.3,13.21,-7.87,-14.97,0,*7A
1537088643.18,36636,19.31,74560.5,13.17,-7.77,-14.75,0,*7F
1537088644.4,36637,19.31,74560.3,13.17,-7.23,-14.23,0,*7C
1537088645.67,36638,19.31,74560.8,13.13,-8.03,-15.21,0,*79
1537088646.93,36639,19.31,74562.8,13.11,-8.51,-15.81,0,*77
1537088648.19,36640,19.38,74562.3,13.09,-9.37,-16.75,0,*79
1537088649.38,36641,19.38,74564.0,13.03,-10.09,-17.31,0,*46
1537088650.61,36642,19.31,74560.5,13.03,-9.93,-17.07,0,*7B
1537088651.85,36643,19.31,74560.8,12.99,-10.71,-17.87,0,*44
1537088653.07,36644,19.38,74564.0,12.95,-10.97,-18.11,0,*47
1537088654.29,36645,19.31,74562.8,12.91,-11.01,-18.25,0,*4B
1537088655.57,36646,19.31,74560.0,12.87,-10.71,-18.01,0,*4F
1537088656.82,36647,19.31,74562.3,12.87,-10.09,-17.41,0,*4A
1537088658.06,36648,19.31,74560.0,12.85,-9.61,-17.03,0,*77
1537088659.31,36649,19.31,74562.0,12.83,-10.31,-17.63,0,*4B
1537088660.56,36650,19.31,74560.0,12.81,-11.37,-18.93,0,*46
1537088661.77,36651,19.31,74560.8,12.77,-12.29,-19.75,0,*4B
1537088663.0,36652,19.31,74562.0,12.73,-12.15,-19.51,0,*45
1537088664.25,36653,19.31,74560.8,12.67,-11.63,-19.07,0,*40
1537088665.49,36654,19.31,74562.3,12.65,-11.37,-18.69,0,*4D
1537088666.74,36655,19.31,74562.8,12.63,-11.85,-19.37,0,*49
1537088667.96,36656,19.31,74562.5,12.59,-11.63,-18.99,0,*4E
1537088669.19,36657,19.31,74560.0,12.57,-11.15,-18.49,0,*4D
1537088670.42,36658,19.31,74560.5,12.55,-11.55,-18.69,0,*46
1537088671.62,36659,19.31,74556.3,12.51,-12.03,-19.03,0,*4E
1537088672.88,36660,19.31,74560.0,12.49,-11.07,-17.69,0,*48
1537088674.14,36661,19.31,74560.5,12.45,-10.71,-16.83,0,*40
1537088675.37,36662,19.31,74560.3,12.41,-10.23,-15.99,0,*48
1537088676.63,36663,19.38,74562.8,12.41,-10.63,-16.03,0,*4D
1537088677.84,36664,19.38,74564.0,12.39,-10.15,-15.63,0,*41
1537088679.1,36665,19.31,74560.8,12.37,-9.41,-14.89,0,*72
1537088680.37,36666,19.31,74560.0,12.37,-9.53,-15.35,0,*74
1537088681.62,36667,19.31,74562.0,12.35,-9.45,-15.35,0,*70
1537088682.88,36668,19.38,74564.3,12.33,-9.41,-15.15,0,*7F
1537088684.12,36669,19.31,74562.5,12.33,-8.59,-14.43,0,*74
1537088685.35,36670,19.31,74560.0,12.31,-8.41,-14.01,0,*71
1537088686.55,36671,19.38,74564.0,12.31,-8.29,-14.15,0,*7B
1537088687.79,36672,19.31,74562.8,12.33,-8.59,-14.43,0,*7E
1537088689.04,36673,19.31,74560.5,12.33,-8.59,-14.43,0,*7F
1537088690.27,36674,19.31,74562.8,12.35,-8.81,-14.65,0,*7F
1537088691.5,36675,19.31,74562.5,12.35,-9.45,-15.49,0,*78
1537088692.78,36676,19.31,74560.3,12.33,-11.33,-17.55,0,*4A
1537088693.99,36677,19.31,74562.5,12.35,-12.21,-18.49,0,*4F
1537088695.28,36678,19.31,74560.8,12.33,-11.55,-17.63,0,*41
1537088696.51,36679,19.31,74560.3,12.35,-11.41,-17.41,0,*43
1537088697.74,36680,19.31,74562.0,12.35,-13.47,-19.23,0,*4B
1537088698.98,36681,19.31,74560.8,12.35,-13.51,-19.27,0,*49
1537088700.21,36682,19.31,74560.8,12.37,-13.55,-19.17,0,*4F
1537088701.42,36683,19.31,74560.8,12.37,-13.47,-19.07,0,*4C
1537088702.65,36684,19.31,74560.5,12.37,-15.07,-20.73,0,*40
1537088703.88,36685,19.38,74564.0,12.35,-15.21,-20.69,0,*4C
1537088705.08,36686,19.31,74562.5,12.35,-15.07,-20.05,0,*41
1537088706.31,36687,19.31,74562.0,12.37,-15.49,-20.29,0,*46
1537088707.59,36688,19.31,74560.5,12.33,-16.51,-21.33,0,*4D
1537088708.84,36689,19.31,74562.5,12.33,-16.31,-21.13,0,*48
1537088710.08,36690,19.31,74560.3,12.31,-17.17,-21.77,0,*45
1537088711.36,36691,19.31,74560.3,12.29,-15.21,-19.57,0,*43
1537088712.56,36692,19.31,74562.3,12.31,-15.71,-20.25,0,*43
1537088713.81,36693,19.31,74560.0,12.29,-15.21,-19.71,0,*45
1537088715.07,36694,19.31,74560.5,12.29,-13.69,-18.31,0,*4D
1537088716.29,36695,19.31,74560.3,12.31,-12.57,-17.31,0,*46
1537088717.52,36696,19.31,74558.8,12.31,-12.97,-17.79,0,*45
1537088718.75,36697,19.31,74562.0,12.35,-12.07,-16.89,0,*47
1537088720.0,36698,19.31,74562.3,12.37,-11.19,-15.89,0,*45
1537088721.21,36699,19.31,74560.3,12.43,-11.01,-15.71,0,*49
1537088722.44,36700,19.31,74556.8,12.43,-12.11,-16.89,0,*4E
1537088723.7,36701,19.31,74562.5,12.45,-12.97,-17.59,0,*4B
1537088724.98,36702,19.31,74562.0,12.49,-13.01,-17.11,0,*46
1537088726.21,36703,19.31,74562.8,12.51,-12.43,-16.23,0,*49
1537088727.49,36704,19.31,74562.3,12.53,-12.71,-16.23,0,*4D
1537088728.77,36705,19.31,74560.8,12.57,-13.33,-16.31,0,*4C
1537088730.02,36706,19.31,74562.8,12.61,-12.83,-15.43,0,*46
1537088731.25,36707,19.31,74558.8,12.61,-11.89,-13.73,0,*4B
1537088732.5,36708,19.31,74558.8,12.65,-11.29,-12.93,0,*45
1537088733.73,36709,19.31,74558.0,12.69,-11.81,-13.19,0,*49
1537088734.99,36710,19.31,74562.5,12.79,-12.15,-13.19,0,*4E
1537088736.27,36711,19.31,74560.0,12.79,-12.15,-12.75,0,*44
1537088737.5,36712,19.31,74562.8,12.85,-11.59,-11.41,0,*4B
1537088738.75,36713,19.31,74562.0,12.87,-11.15,-10.67,0,*45
1537088740.02,36714,19.31,74560.3,12.97,-11.07,-10.35,0,*47
1537088741.27,36715,19.31,74562.8,13.01,-10.45,-9.57,0,*73
1537088742.47,36716,19.31,74560.8,13.03,-9.79,-8.85,0,*4B
1537088743.69,36717,19.31,74562.8,13.07,-8.59,-7.91,0,*47
1537088744.94,36718,19.31,74560.8,13.09,-7.19,-6.23,0,*45
1537088746.13,36719,19.31,74562.0,13.19,-6.39,-5.35,0,*42
1537088747.37,36720,19.31,74560.0,13.23,-6.97,-5.73,0,*47
1537088748.61,36721,19.31,74562.5,13.25,-7.31,-5.73,0,*4D
1537088749.85,36722,19.31,74560.5,13.29,-7.05,-5.11,0,*41
1537088751.07,36723,19.31,74560.5,13.33,-5.55,-3.63,0,*4F
1537088752.3,36724,19.31,74562.0,13.35,-6.19,-4.45,0,*46
1537088753.52,36725,19.31,74562.3,13.41,-5.31,-3.83,0,*40
1537088754.72,36726,19.31,74560.0,13.45,-4.41,-3.27,0,*4F
1537088755.95,36727,19.31,74558.8,13.47,-4.53,-3.55,0,*4A
1537088757.16,36728,19.31,74558.0,13.53,-4.57,-3.63,0,*41
1537088758.41,36729,19.31,74560.8,13.57,-3.63,-2.95,0,*4C
1537088759.61,36730,19.31,74560.5,13.63,-3.75,-3.15,0,*4D
1537088760.84,36731,19.31,74562.0,13.69,-3.35,-3.03,0,*45
1537088762.05,36732,19.31,74562.0,13.71,-2.83,-2.67,0,*40
1537088763.27,36733,19.31,74560.5,13.79,-2.79,-2.59,0,*41
1537088764.49,36734,19.31,74562.3,13.85,-2.99,-3.11,0,*46
1537088765.71,36735,19.31,74562.5,13.93,-2.15,-2.51,0,*41
1537088766.91,36736,19.31,74564.0,13.97,-1.63,-2.23,0,*41
1537088768.15,36737,19.31,74562.3,14.03,-1.79,-2.51,0,*44
1537088769.36,36738,19.31,74560.5,14.11,-2.31,-3.35,0,*44
1537088770.58,36739,19.31,74560.5,14.17,-2.71,-4.13,0,*44
1537088771.83,36740,19.31,74562.3,14.21,-2.11,-3.83,0,*47
1537088773.03,36741,19.31,74560.5,14.27,-2.35,-4.53,0,*4C
1537088774.25,36742,19.31,74562.0,14.31,-3.19,-5.61,0,*47
1537088775.48,36743,19.31,74566.3,14.37,-3.39,-6.13,0,*44
1537088776.7,36744,19.31,74560.5,14.39,-3.51,-6.59,0,*4D
1537088777.94,36745,19.31,74560.3,14.45,-3.79,-7.05,0,*45
1537088779.21,36746,19.31,74560.8,14.49,-5.27,-9.15,0,*48
1537088780.41,36747,19.31,74564.3,14.53,-6.01,-10.49,0,*74
1537088781.66,36748,19.31,74562.5,14.55,-7.27,-12.03,0,*74
1537088782.9,36749,19.31,74560.5,14.55,-9.93,-14.75,0,*73
1537088784.13,36750,19.31,74564.5,14.55,-9.79,-14.23,0,*7C
1537088785.36,36751,19.31,74562.3,14.57,-10.57,-14.97,0,*44
1537088786.62,36752,19.31,74560.5,14.55,-10.19,-14.47,0,*42
1537088787.85,36753,19.31,74562.3,14.55,-10.31,-14.37,0,*4E
1537088789.1,36754,19.31,74560.3,14.55,-10.89,-15.01,0,*4E
1537088790.31,36755,19.31,74562.5,14.57,-11.11,-15.11,0,*4C
1537088791.59,36756,19.31,74560.5,14.55,-11.77,-15.89,0,*4C
1537088792.8,36757,19.31,74560.5,14.53,-11.19,-15.49,0,*4F
1537088794.02,36758,19.31,74560.5,14.55,-9.75,-14.69,0,*76
1537088795.27,36759,19.31,74562.0,14.55,-7.87,-12.57,0,*7F
1537088796.5,36760,19.31,74560.5,14.57,-6.93,-12.21,0,*72
1537088797.76,36761,19.31,74562.8,14.63,-8.03,-13.83,0,*7A
1537088798.98,36762,19.31,74560.3,14.65,-8.81,-14.37,0,*7D
1537088800.22,36763,19.31,74560.3,14.67,-7.61,-13.07,0,*7B
1537088801.42,36764,19.31,74564.3,14.65,-7.23,-12.43,0,*79
1537088802.64,36765,19.31,74562.8,14.67,-8.25,-13.51,0,*71
1537088803.86,36766,19.31,74564.0,14.67,-8.25,-13.43,0,*71
1537088805.1,36767,19.31,74564.0,14.71,-7.95,-13.15,0,*70
1537088806.35,36768,19.31,74566.5,14.75,-8.45,-13.97,0,*73
1537088807.58,36769,19.31,74562.3,14.77,-9.05,-14.51,0,*78
1537088808.84,36770,19.31,74564.0,14.77,-10.63,-15.89,0,*4C
1537088810.07,36771,19.31,74564.5,14.77,-10.45,-15.57,0,*4A
1537088811.29,36772,19.31,74562.3,14.77,-9.45,-14.29,0,*79
1537088812.54,36773,19.31,74558.3,14.79,-9.45,-14.23,0,*7C
1537088813.79,36774,19.31,74564.0,14.79,-8.89,-13.79,0,*72
1537088815.01,36775,19.31,74564.0,14.81,-9.61,-14.65,0,*79
1537088816.27,36776,19.31,74564.0,14.83,-10.19,-14.93,0,*46
1537088817.54,36777,19.31,74564.0,14.83,-9.41,-14.01,0,*79
1537088818.79,36778,19.31,74560.0,14.87,-9.31,-13.79,0,*7D
1537088819.99,36779,19.31,74560.0,14.89,-9.75,-14.23,0,*7A
1537088821.21,36780,19.31,74566.3,14.93,-10.53,-14.79,0,*44
1537088822.41,36781,19.31,74562.5,14.93,-9.97,-14.15,0,*7F
1537088823.65,36782,19.31,74562.8,14.93,-10.35,-14.55,0,*48
1537088824.89,36783,19.31,74562.5,14.95,-9.75,-13.79,0,*7A
1537088826.14,36784,19.31,74566.3,14.99,-9.45,-13.19,0,*74
1537088827.4,36785,19.31,74560.0,15.03,-8.37,-11.93,0,*73
1537088828.65,36786,19.31,74562.3,15.07,-7.87,-11.29,0,*71
1537088829.9,36787,19.31,74560.3,15.11,-8.03,-11.45,0,*7E
1537088831.12,36788,19.31,74560.3,15.15,-7.53,-10.93,0,*75
1537088832.39,36789,19.31,74562.8,15.25,-7.39,-10.67,0,*70
1537088833.61,36790,19.31,74560.5,15.29,-7.87,-11.11,0,*71
1537088834.86,36791,19.31,74562.0,15.29,-7.95,-11.15,0,*77
1537088836.13,36792,19.31,74564.0,15.33,-7.77,-10.71,0,*70
1537088837.38,36793,19.31,74562.0,15.43,-7.69,-10.67,0,*7E
1537088838.61,36794,19.31,74562.0,15.47,-7.95,-10.93,0,*75
1537088839.82,36795,19.31,74560.0,15.51,-10.05,-13.07,0,*42
1537088841.11,36796,19.31,74560.8,15.51,-9.11,-12.07,0,*7D
1537088842.37,36797,19.31,74562.8,15.55,-9.01,-11.89,0,*7C
1537088843.6,36798,19.31,74564.3,15.57,-9.37,-12.03,0,*75
1537088844.85,36799,19.31,74566.0,15.59,-8.97,-11.59,0,*7D
1537088846.12,36800,19.31,74560.8,15.63,-9.45,-11.93,0,*73
1537088847.34,36801,19.31,74558.5,15.69,-9.19,-11.85,0,*76
1537088848.57,36802,19.31,74562.3,15.73,-9.01,-11.51,0,*7E
1537088849.78,36803,19.31,74566.3,15.73,-10.01,-12.65,0,*43
1537088851.04,36804,19.31,74564.0,15.77,-11.29,-14.01,0,*4F
1537088852.28,36805,19.31,74562.8,15.79,-10.85,-13.37,0,*45
1537088853.56,36806,19.31,74566.0,15.79,-9.41,-11.73,0,*74
1537088854.78,36807,19.31,74562.5,15.83,-9.31,-11.67,0,*72
1537088856.03,36808,19.31,74562.3,15.85,-10.15,-12.57,0,*45
1537088857.29,36809,19.31,74562.8,15.91,-10.41,-12.71,0,*44
1537088858.51,36810,19.31,74562.3,15.91,-9.75,-12.07,0,*72
1537088859.75,36811,19.31,74560.8,15.95,-9.45,-11.77,0,*70
1537088860.95,36812,19.31,74560.0,15.99,-10.15,-12.43,0,*46
1537088862.16,36813,19.31,74562.8,16.03,-9.93,-12.07,0,*71
1537088863.37,36814,19.31,74560.8,16.03,-9.89,-11.97,0,*77
1537088864.56,36815,19.31,74562.8,16.07,-9.97,-12.03,0,*73
1537088865.76,36816,19.31,74562.3,16.11,-10.45,-12.39,0,*49
1537088867.01,36817,19.31,74562.8,16.13,-9.93,-11.81,0,*79
1537088868.26,36818,19.31,74556.8,16.17,-9.97,-11.93,0,*75
1537088869.51,36819,19.31,74562.8,16.21,-9.79,-11.81,0,*72
1537088870.73,36820,19.31,74562.5,16.23,-9.61,-11.15,0,*7E
1537088871.96,36821,19.31,74562.3,16.27,-9.71,-11.37,0,*7A
1537088873.21,36822,19.31,74562.8,16.29,-9.93,-11.73,0,*7B
1537088874.45,36823,19.31,74562.0,16.31,-10.23,-11.97,0,*4A
1537088875.71,36824,19.31,74562.5,16.33,-10.31,-12.07,0,*46
1537088876.97,36825,19.31,74562.0,16.37,-10.23,-11.89,0,*45
1537088878.19,36826,19.31,74562.8,16.39,-10.09,-11.77,0,*41
1537088879.41,36827,19.31,74562.8,16.43,-10.19,-12.03,0,*4C
1537088880.62,36828,19.31,74560.5,16.45,-10.35,-12.25,0,*4F
1537088881.89,36829,19.31,74560.0,16.43,-11.07,-12.75,0,*4D
1537088883.17,36830,19.31,74560.5,16.47,-10.63,-12.61,0,*47
1537088884.43,36831,19.31,74562.3,16.47,-10.45,-12.65,0,*46
1537088885.63,36832,19.31,74562.8,16.49,-10.23,-12.97,0,*46
1537088886.86,36833,19.31,74560.5,16.49,-9.89,-12.75,0,*73
1537088888.08,36834,19.31,74560.5,16.49,-9.23,-12.15,0,*72
1537088889.32,36835,19.31,74562.3,16.51,-10.19,-13.15,0,*4A
1537088890.55,36836,19.31,74562.3,16.53,-10.89,-13.97,0,*48
1537088891.75,36837,19.31,74562.0,16.53,-10.85,-14.23,0,*4D
1537088893.02,36838,19.31,74562.3,16.51,-10.79,-14.37,0,*46
1537088894.27,36839,19.31,74558.5,16.51,-9.97,-13.61,0,*7B
1537088895.52,36840,19.31,74562.0,16.49,-8.81,-12.53,0,*7A
1537088896.75,36841,19.31,74560.0,16.49,-9.41,-13.15,0,*75
1537088897.95,36842,19.31,74562.0,16.49,-9.97,-13.55,0,*79
1537088899.23,36843,19.31,74560.8,16.47,-11.33,-14.79,0,*48
1537088900.44,36844,19.31,74562.0,16.45,-10.01,-13.55,0,*44
1537088901.69,36845,19.31,74560.5,16.43,-9.37,-13.29,0,*75
1537088902.92,36846,19.31,74562.0,16.43,-8.97,-13.01,0,*77
1537088904.12,36847,19.31,74558.8,16.43,-9.23,-13.43,0,*7E